星链-1162 (STARLINK-1162 )

导读

STARLINK-1162是美国太空探索技术公司SpaceX星链星座的卫星,由美国于2020年1月29日发射升空,属于星链低轨互联网星座组网卫星,依托近地轨道部署,旨在为全球提供高速卫星互联网接入服务,推动星链星座全球覆盖组网进程,是星链早期批量部署的卫星之一。

基本信息
目录编号:
45058
目录名称:
STARLINK-1162
国际标识:
2020-006Q
轨道中心:
EARTH
卫星名称:
星链-1162
卫星全名:
星链-1162 (STARLINK-1162 )
卫星状态:
已陨落 最后检测时间 2025-04-27
发射日期:
2020-01-29 UTC
国别 :
美国 (US)
星等 :
--
轨道信息
数据来源 国际轨道数据
星历时间: 2025-04-27T11:26:16+0800
轨道信息已过期411天
半长轴: 6524.597km
偏心率: 0.0001174
轨道倾角: 53.021°
近地点辐角 160.476°
升交点赤经 210.214°
平近点角 277.915°
近地点: 145.696km
远地点: 147.228km
周期: 87.416分钟
每日圈数: 16.472983
详细信息
固有亮度:
5
最大亮度:
2.5
卫星平台:
Starlink V1.0
覆盖范围:
全球
运营商:
太空探索技术公司
运营商所在国:
美国
制造商(研发单位):
太空探索技术公司
制造商所在国:
美国
使用方式:
暂无
卫星简介
星链(Starlink)计划是由太空探索技术公司(SpaceX)提出的一个巨型低轨卫星互联网星座项目,计划在2019年至2024年间在太空搭建由约1.2万颗卫星组成的“星链”网络,其中1584颗将部署在地球上空550千米处的近地轨道,并从2020年开始工作。该卫星仍在工作。